Temperature
23 22 22 22 22 22 23 23 23 23 22 22 21 21 20 20 19 19 19 19 19 19 19 19 18 18 18 18 18 18 18 18 18 18 18 18 18 18 18 18 18 18 17
22 21 20 20 20 21 21 22 22 22 22 21 21 20 20 20 19 19 19 19 19 18 18 18 18 18 18 18 18 17 17 17 17 17 17 17 18 18 18 18 18 18 18
20 19 19 19 19 19 20 20 21 22 22 21 21 20 20 19 19 19 18 18 18 18 18 18 18 18 17 17 17 17 17 17 17 17 17 17 17 18 18 18 18 18 17
19 18 18 17 17 17 18 19 20 21 21 21 21 20 20 19 19 19 18 18 18 18 18 17 17 17 17 17 17 17 17 17 17 17 17 17 17 17 17 17 17 17 17
18 17 17 17 16 16 17 18 19 20 21 21 20 20 19 19 19 18 18 18 17 17 17 17 17 17 17 17 16 17 16 16 17 17 17 17 17 16 16 17 17 17 17
16 16 16 16 16 16 16 17 17 18 19 19 19 19 19 18 18 17 17 17 17 17 17 17 17 16 16 16 16 16 16 16 16 16 16 16 16 16 16 16 16 17 17
15 15 15 15 15 15 15 16 16 16 17 18 18 18 17 17 17 16 16 16 16 16 16 16 16 16 16 16 16 16 16 16 16 16 16 16 16 16 16 16 16 16 16
14 13 13 14 14 14 14 15 15 15 16 16 16 16 16 16 16 15 15 15 15 15 15 15 16 16 16 16 16 16 16 16 16 16 16 15 15 15 15 15 15 15 16
12 12 13 13 13 14 14 14 14 14 15 15 15 15 15 15 15 14 14 14 14 15 15 15 15 15 16 15 16 16 16 15 15 15 15 15 15 15 15 15 15 15 15
11 12 12 12 13 13 13 13 14 14 14 14 14 14 14 14 14 14 14 14 14 14 15 15 15 15 15 16 16 15 15 15 15 15 15 15 15 14 14 14 14 14 14
11 11 12 12 12 13 13 13 13 14 14 14 14 14 14 14 14 14 14 14 15 15 15 15 15 16 16 16 16 15 15 15 15 15 15 15 15 15 15 14 14 14 14
11 11 11 12 12 12 13 13 13 13 13 14 14 14 14 14 14 14 14 15 15 15 15 15 16 16 16 16 16 16 15 15 15 15 15 15 15 15 15 14 14 14 14
11 11 12 12 12 12 12 13 13 13 13 13 14 14 14 14 14 14 15 15 15 15 15 16 16 16 16 16 16 16 16 15 15 15 15 15 15 15 15 14 14 14 14
12 12 12 12 12 12 12 13 13 13 13 13 13 14 14 14 14 14 15 15 15 15 16 16 16 16 16 16 16 16 16 15 16 15 15 15 15 15 15 14 14 14 14
13 13 13 13 13 13 13 12 12 13 13 13 13 13 13 14 14 14 14 15 15 15 15 15 15 15 15 15 15 16 15 15 16 15 15 15 15 15 15 15 14 14 14
14 14 14 14 14 13 13 13 12 12 12 12 12 13 13 13 13 14 14 14 14 15 15 15 15 15 15 15 15 15 15 15 15 15 15 15 15 15 15 15 15 14 14
15 15 15 14 14 14 13 13 13 12 12 12 12 12 12 12 12 13 13 13 13 14 14 14 14 14 14 14 15 15 15 15 15 15 15 15 15 15 15 15 14 14 14
15 15 15 15 15 14 14 13 13 12 12 12 12 12 12 12 12 12 12 12 12 13 13 13 13 13 13 14 14 14 14 14 14 14 14 14 14 14 14 14 14 14 14
15 15 15 15 15 15 14 14 13 12 12 12 12 12 12 12 12 12 12 12 12 12 12 12 12 12 12 13 13 13 13 13 13 13 13 14 14 14 14 14 14 14 14
15 15 15 15 15 15 14 14 13 12 12 12 11 12 12 12 12 11 11 11 11 11 11 11 11 12 12 12 12 13 13 13 13 13 13 13 13 14 14 14 14 14 14
15 15 15 15 15 15 14 14 13 12 12 12 12 12 12 11 12 11 11 11 11 11 11 11 11 11 11 11 12 12 12 12 12 12 12 12 13 13 13 14 14 14 13
15 15 15 15 15 15 14 14 13 13 12 12 12 12 12 11 11 11 11 11 11 11 11 10 10 10 10 11 11 11 11 11 11 11 12 12 12 13 13 13 13 13 13
15 15 15 15 15 15 14 14 13 13 13 13 12 12 12 11 11 11 11 11 11 11 10 10 10 10 10 10 11 11 11 11 11 11 11 11 12 12 12 12 12 13 13
15 15 15 15 15 15 15 14 14 14 14 13 13 12 12 11 11 11 11 11 11 11 10 10 10 10 10 10 10 10 10 10 10 10 11 11 11 11 11 11 12 12 12
15 15 15 15 15 15 15 15 14 14 14 14 13 12 12 11 11 11 11 11 11 10 10 10 10 10 10 10 9 9 10 10 10 10 10 10 11 11 11 11 11 11 11
15 15 15 15 16 15 15 15 14 14 14 13 13 12 12 11 11 11 11 11 11 10 10 10 10 10 10 9 9 9 9 9 10 10 10 10 10 10 10 10 10 10 10
Wind_Speed
10 10 11 10 9 8 7 6 5 8 7 6 7 7 6 5 5 5 5 5 3 5 5 4 3 2 2 1 1 1 1 0 1 1 2 2 3 4 4 3 2 2 7
11 11 12 13 14 12 10 9 6 7 9 7 8 7 7 5 5 5 5 6 4 4 5 5 3 3 2 1 2 1 0 1 1 2 1 2 3 4 4 4 3 2 3
12 13 12 12 13 13 14 12 10 7 7 9 7 7 6 5 5 5 4 4 4 4 4 3 3 3 3 3 4 4 4 3 3 3 3 3 4 3 3 5 5 5 3
12 11 12 12 13 13 14 14 13 11 5 7 10 10 8 7 6 6 4 4 3 3 3 3 2 3 3 4 6 6 5 5 5 4 3 4 3 2 2 3 3 5 5
13 13 12 11 12 13 12 12 13 11 8 2 7 9 7 6 5 6 7 5 4 3 3 3 1 2 3 4 6 5 6 6 6 5 4 4 4 4 4 3 3 2 3
15 14 13 12 11 11 11 11 11 11 10 8 3 6 8 9 8 7 7 5 4 2 2 2 2 2 3 4 5 6 6 6 6 6 5 4 3 4 4 4 4 4 3
16 14 14 13 11 11 11 10 10 10 10 9 7 5 6 7 7 6 6 6 4 2 1 1 2 3 3 3 3 4 5 5 6 6 5 4 4 3 2 3 4 4 3
16 14 13 12 11 10 10 9 9 9 9 9 8 8 8 6 5 5 5 5 3 2 2 1 3 3 3 3 3 2 3 4 4 5 4 3 4 3 4 4 4 3 4
16 15 13 12 11 10 10 9 9 9 8 9 8 8 8 7 6 5 5 3 2 2 1 2 3 3 3 3 2 3 3 2 1 1 1 2 3 3 3 3 4 4 4
16 14 12 12 11 10 10 10 9 9 8 7 7 7 6 6 5 4 3 3 2 0 1 3 4 5 5 5 3 1 1 1 1 2 1 2 2 2 2 3 3 4 5
14 13 12 11 11 11 11 11 10 9 8 7 7 7 6 5 4 3 2 1 1 3 4 5 6 6 7 6 5 3 3 2 2 3 4 4 4 3 3 3 3 4 4
14 13 12 12 12 12 11 11 11 9 8 7 7 6 5 4 3 2 2 3 4 5 6 6 5 3 3 2 4 4 3 3 3 3 3 3 3 3 3 3 4 4 5
14 12 11 11 11 10 11 10 10 9 7 7 6 5 4 3 2 3 4 4 5 5 4 4 2 2 2 1 1 2 3 4 4 3 2 2 2 2 2 3 3 3 3
10 10 9 9 9 8 8 9 9 8 7 6 5 4 3 2 2 3 4 4 4 4 4 3 2 2 2 3 3 1 1 2 2 2 2 2 2 3 2 1 0 1 2
9 8 8 7 7 6 6 6 6 6 7 7 7 7 5 5 4 5 6 6 7 7 6 6 6 6 6 7 7 6 5 4 3 2 2 2 6 6 3 2 2 2 1
10 9 8 7 7 7 7 7 7 7 6 7 7 7 7 7 7 7 7 7 8 8 8 8 8 9 9 11 11 8 6 6 5 4 3 3 6 7 6 5 3 1 1
9 9 8 7 7 7 7 7 7 7 8 8 8 9 8 8 8 8 8 8 8 8 9 9 9 9 11 14 13 12 7 6 5 5 4 2 2 5 4 6 7 5 5
9 9 8 7 8 7 6 7 8 8 8 8 8 8 8 8 8 8 9 9 8 7 7 8 8 7 10 15 14 14 7 5 5 5 4 4 2 3 4 1 2 3 4
8 7 8 8 8 8 7 8 8 8 8 8 8 8 8 8 8 8 8 7 6 6 6 6 7 7 9 15 16 14 6 4 4 4 4 5 5 7 8 5 3 2 2
6 7 7 8 8 7 7 8 8 8 8 8 7 7 7 7 8 8 7 6 5 5 5 5 6 7 7 12 16 15 6 6 5 4 4 8 7 7 8 6 5 3 2
6 7 6 6 6 6 6 8 7 7 6 6 6 7 7 7 7 7 7 6 6 6 5 5 4 5 6 9 13 14 7 6 5 4 4 4 6 6 7 5 4 3 4
6 6 5 5 4 5 6 6 5 4 4 4 4 5 7 7 7 7 7 7 7 7 7 7 6 5 6 8 10 12 10 8 5 5 4 4 7 6 6 5 5 5 5
6 5 5 5 4 5 5 5 3 2 3 4 4 4 6 6 7 7 8 7 7 6 6 6 6 6 7 9 15 12 11 11 5 4 4 5 6 5 4 4 5 5 4
5 5 5 6 5 3 4 4 3 1 2 4 4 6 6 7 7 7 7 7 7 7 7 7 7 6 7 9 9 9 8 9 7 5 5 6 7 6 6 5 4 5 5
5 5 6 5 6 3 4 5 5 5 2 4 5 6 5 5 6 6 6 6 6 5 5 5 6 6 7 8 11 8 7 7 7 6 5 6 6 7 7 7 7 6 6
6 6 5 5 6 5 5 5 4 5 5 5 5 4 4 4 5 6 5 9 7 7 9 9 7 5 7 9 11 12 13 14 13 9 7 8 8 8 8 8 7 7 7
Wind_Direction
11 19 5 351 333 318 305 281 220 187 187 174 177 172 171 165 160 157 154 159 150 117 115 129 135 99 106 154 251 270 165 211 330 324 331 304 253 246 204 207 251 224 150
3 12 6 358 350 343 331 306 280 213 196 190 186 176 166 163 156 147 140 144 152 138 131 134 136 138 144 204 257 281 156 209 222 198 214 298 301 276 242 197 196 266 159
6 0 0 357 350 346 342 331 315 283 217 190 183 168 151 154 157 151 144 141 141 133 128 136 147 174 182 207 227 229 215 221 243 228 190 194 232 269 270 226 196 208 206
4 1 3 358 351 347 344 339 333 320 292 197 181 174 170 173 171 158 142 132 125 125 134 134 178 208 208 215 222 224 213 212 228 248 237 230 218 191 281 294 237 205 206
1 1 2 359 354 353 350 345 345 343 344 334 178 175 168 165 144 132 127 125 113 108 124 137 162 234 235 229 230 232 216 205 215 224 232 245 260 243 220 255 284 270 223
360 1 0 360 0 0 359 359 3 7 7 14 78 146 149 142 136 136 135 125 113 96 97 143 165 229 242 244 243 233 226 213 217 224 226 222 223 230 228 227 242 255 255
360 1 2 357 360 4 4 9 14 17 20 32 50 86 116 128 135 136 133 126 119 118 134 179 211 224 230 242 247 242 234 221 220 221 223 225 228 233 230 231 242 249 261
0 4 5 1 1 6 8 18 26 28 31 45 58 71 83 85 90 98 110 111 114 130 154 203 239 235 229 242 230 245 254 240 229 220 214 212 230 228 215 211 220 245 256
0 3 4 6 8 11 14 22 32 38 42 54 65 71 79 84 84 85 90 100 118 136 161 224 229 227 212 225 228 213 248 241 247 218 257 221 223 224 226 221 206 202 230
0 3 6 10 16 20 21 27 37 43 49 56 64 74 77 85 88 86 87 82 74 27 264 268 245 216 199 205 204 228 249 265 220 151 263 269 243 230 220 221 222 207 209
4 9 14 18 22 25 26 27 30 36 38 45 56 60 63 64 69 65 62 67 249 247 247 252 252 219 197 193 169 201 189 239 247 207 210 220 225 216 224 227 226 221 206
10 17 21 24 27 26 25 26 25 32 32 36 45 51 50 44 28 353 313 283 273 267 263 252 246 199 153 164 156 181 182 222 248 242 215 219 213 208 220 218 225 226 217
11 18 22 22 24 25 24 27 25 25 29 34 38 39 40 27 350 315 296 277 270 278 276 263 264 116 132 154 150 183 212 223 225 232 227 226 190 198 200 207 226 232 239
11 18 20 19 24 28 26 25 22 23 27 30 37 39 27 3 334 323 320 320 323 319 321 332 8 59 65 33 4 336 287 279 257 230 226 219 120 84 52 44 55 240 260
17 19 20 20 25 31 35 33 30 32 31 32 35 31 30 27 23 17 12 12 10 5 10 14 24 35 43 31 14 355 339 323 313 303 272 136 118 113 104 79 27 12 340
16 19 26 27 30 34 40 39 40 40 42 43 41 37 36 31 30 28 26 26 23 18 22 23 35 45 36 24 21 6 343 331 329 323 331 147 166 165 174 184 197 211 317
14 11 23 26 30 39 52 50 44 42 43 44 40 37 39 38 34 32 30 34 38 35 35 35 44 53 33 20 12 2 332 308 307 309 313 312 119 151 196 205 211 221 222
12 5 18 28 28 30 53 67 55 45 40 40 44 40 37 36 35 36 36 35 40 44 43 38 42 50 35 19 9 353 322 299 300 305 320 333 21 48 26 18 208 200 184
8 1 11 26 27 27 37 57 62 53 42 37 42 42 36 32 30 32 36 34 33 41 50 39 36 38 30 18 11 0 331 331 329 339 17 33 56 41 29 5 351 60 113
8 359 12 21 18 21 35 48 57 52 42 35 37 42 40 36 29 25 25 28 31 33 55 56 47 39 29 21 16 9 359 356 350 1 47 58 59 38 24 8 11 29 20
17 4 8 14 8 16 41 48 48 52 48 37 35 36 35 47 42 23 19 21 23 24 31 48 54 55 43 23 19 16 13 354 353 13 32 42 39 38 26 18 28 29 348
20 8 358 351 357 29 39 59 50 51 64 51 42 52 48 39 40 35 28 24 20 25 26 26 27 30 41 28 10 10 11 3 6 19 24 24 19 22 22 30 37 19 2
16 356 339 344 12 42 41 53 59 36 72 65 43 64 75 64 41 37 36 30 27 28 25 19 20 21 25 16 6 4 8 11 16 22 21 19 21 13 27 48 27 17 31
1 348 359 8 356 20 51 55 35 346 104 97 68 71 69 71 59 39 41 43 28 22 19 18 16 16 26 16 4 358 4 8 12 14 25 31 41 43 46 47 41 46 50
357 9 18 347 332 19 59 60 20 343 38 89 85 85 83 89 85 68 45 48 54 38 21 9 15 20 20 5 2 11 11 5 9 14 32 40 38 39 40 43 41 39 40
6 8 5 343 349 20 49 71 30 350 34 70 67 68 91 96 120 121 93 53 61 56 54 44 42 59 30 7 12 16 22 24 29 43 46 43 40 40 39 41 40 37 36
Height
1507 1506 1505 1505 1505 1504 1504 1504 1504 1504 1507 1508 1510 1513 1516 1519 1521 1524 1526 1529 1531 1533 1535 1537 1539 1541 1543 1545 1547 1549 1550 1551 1553 1555 1555 1556 1556 1557 1557 1557 1558 1559 1558
1508 1507 1506 1504 1503 1501 1501 1501 1502 1501 1501 1503 1504 1506 1510 1514 1516 1519 1522 1525 1527 1530 1532 1534 1536 1538 1540 1542 1544 1546 1547 1549 1551 1552 1553 1554 1555 1554 1555 1555 1556 1557 1557
1509 1508 1506 1504 1502 1500 1498 1497 1497 1497 1497 1497 1498 1500 1504 1508 1511 1513 1516 1520 1523 1525 1527 1530 1533 1535 1537 1539 1541 1542 1544 1545 1547 1549 1551 1551 1550 1551 1552 1552 1553 1554 1555
1511 1509 1506 1504 1501 1499 1496 1494 1492 1492 1493 1493 1493 1495 1497 1501 1504 1508 1511 1515 1519 1521 1523 1526 1529 1532 1534 1535 1537 1538 1540 1542 1543 1545 1546 1548 1549 1550 1549 1550 1550 1551 1552
1511 1509 1506 1504 1501 1498 1495 1492 1489 1488 1488 1489 1489 1491 1493 1496 1499 1503 1506 1509 1514 1517 1519 1522 1525 1528 1530 1531 1533 1535 1536 1537 1539 1540 1542 1543 1545 1545 1546 1547 1548 1548 1549
1511 1508 1506 1503 1500 1497 1494 1491 1488 1486 1485 1486 1487 1488 1490 1493 1495 1498 1501 1505 1509 1513 1516 1518 1521 1524 1526 1528 1530 1531 1533 1534 1535 1536 1538 1539 1540 1541 1543 1544 1544 1545 1546
1512 1508 1505 1502 1500 1497 1494 1491 1488 1486 1485 1485 1486 1487 1489 1491 1494 1496 1499 1502 1505 1509 1513 1516 1518 1521 1523 1525 1527 1528 1530 1530 1531 1532 1533 1535 1536 1538 1539 1540 1540 1541 1542
1514 1509 1505 1503 1500 1497 1494 1492 1489 1487 1486 1486 1487 1488 1489 1491 1493 1496 1497 1499 1503 1507 1510 1513 1516 1518 1521 1523 1525 1526 1527 1528 1528 1529 1530 1531 1532 1533 1535 1536 1537 1537 1538
1515 1510 1506 1504 1501 1498 1496 1494 1491 1490 1489 1488 1489 1489 1491 1492 1493 1495 1496 1499 1502 1506 1509 1511 1514 1517 1519 1521 1523 1524 1525 1525 1526 1527 1527 1528 1528 1529 1530 1531 1533 1534 1533
1516 1511 1508 1505 1503 1500 1498 1496 1495 1493 1492 1492 1491 1492 1493 1494 1496 1497 1499 1501 1503 1506 1508 1510 1513 1515 1517 1519 1521 1522 1523 1524 1524 1524 1525 1525 1526 1526 1527 1527 1528 1529 1530
1519 1514 1510 1507 1505 1503 1501 1499 1498 1497 1497 1496 1496 1496 1497 1498 1499 1500 1502 1503 1505 1507 1509 1510 1512 1515 1517 1518 1519 1521 1521 1522 1522 1522 1523 1523 1523 1523 1524 1524 1524 1525 1525
1522 1517 1514 1510 1507 1506 1504 1503 1502 1501 1500 1500 1500 1500 1501 1502 1502 1503 1504 1506 1507 1508 1509 1510 1512 1514 1516 1517 1518 1519 1520 1520 1521 1521 1522 1522 1522 1522 1521 1521 1521 1521 1522
1526 1521 1518 1514 1512 1510 1508 1506 1505 1504 1504 1504 1504 1504 1504 1505 1505 1505 1506 1507 1508 1508 1509 1510 1512 1513 1515 1516 1517 1518 1518 1519 1519 1520 1520 1520 1520 1520 1520 1519 1519 1519 1519
1531 1527 1523 1520 1517 1515 1513 1511 1509 1508 1507 1507 1506 1506 1506 1506 1506 1506 1507 1507 1508 1508 1509 1510 1511 1512 1513 1514 1515 1516 1517 1518 1518 1518 1519 1519 1518 1518 1518 1518 1517 1517 1516
1535 1532 1529 1525 1523 1520 1518 1516 1514 1512 1510 1509 1509 1508 1508 1508 1508 1508 1508 1508 1508 1508 1509 1509 1510 1510 1511 1511 1512 1513 1515 1515 1516 1516 1517 1517 1517 1517 1517 1516 1516 1515 1514
1540 1537 1534 1531 1528 1526 1524 1521 1519 1517 1515 1513 1512 1511 1510 1510 1509 1509 1508 1508 1508 1508 1508 1509 1509 1509 1509 1509 1510 1511 1512 1513 1513 1514 1514 1515 1515 1515 1515 1515 1515 1514 1513
1544 1540 1538 1535 1533 1530 1528 1526 1524 1522 1520 1518 1516 1515 1513 1512 1511 1510 1510 1509 1508 1508 1508 1508 1508 1508 1508 1508 1508 1508 1509 1510 1510 1511 1512 1513 1513 1513 1514 1513 1514 1513 1513
1547 1544 1541 1539 1537 1535 1532 1530 1528 1526 1524 1522 1520 1518 1517 1515 1514 1513 1512 1511 1510 1510 1509 1508 1508 1507 1507 1506 1506 1506 1506 1507 1508 1509 1509 1509 1510 1511 1511 1512 1512 1512 1512
1550 1547 1545 1543 1541 1538 1536 1534 1532 1530 1528 1526 1524 1522 1521 1519 1518 1516 1515 1514 1513 1512 1511 1510 1509 1508 1507 1506 1505 1504 1504 1505 1505 1506 1507 1507 1507 1508 1509 1510 1511 1511 1511
1552 1549 1548 1545 1543 1541 1539 1537 1535 1533 1531 1530 1528 1526 1524 1522 1521 1519 1518 1517 1516 1515 1514 1513 1511 1510 1508 1507 1505 1504 1504 1504 1504 1504 1505 1505 1505 1506 1507 1508 1509 1510 1510
1553 1551 1549 1547 1545 1543 1541 1539 1538 1536 1535 1533 1531 1529 1527 1526 1524 1522 1520 1519 1518 1517 1517 1515 1514 1512 1510 1508 1506 1505 1504 1503 1503 1503 1503 1503 1504 1504 1505 1507 1508 1508 1509
1554 1552 1550 1548 1547 1545 1543 1541 1540 1539 1537 1535 1534 1532 1530 1528 1526 1524 1522 1521 1520 1520 1518 1517 1516 1514 1512 1510 1508 1506 1505 1504 1504 1503 1503 1503 1503 1503 1504 1506 1507 1508 1508
1554 1553 1551 1549 1548 1546 1544 1543 1542 1540 1539 1537 1536 1534 1532 1530 1528 1527 1525 1523 1522 1521 1520 1519 1518 1516 1514 1511 1509 1508 1506 1505 1504 1504 1503 1503 1503 1503 1504 1505 1506 1507 1508
1555 1553 1552 1550 1549 1547 1545 1544 1543 1541 1540 1539 1538 1537 1535 1533 1531 1530 1528 1526 1525 1523 1522 1521 1519 1518 1516 1513 1511 1509 1508 1507 1506 1505 1504 1504 1504 1505 1505 1506 1507 1507 1508
1555 1554 1552 1550 1549 1548 1546 1545 1544 1543 1542 1541 1540 1538 1537 1536 1534 1533 1531 1530 1528 1527 1526 1524 1522 1520 1518 1516 1514 1512 1510 1509 1508 1507 1507 1506 1506 1507 1507 1508 1508 1509 1509
1556 1554 1553 1551 1550 1549 1548 1546 1544 1544 1543 1542 1541 1540 1539 1538 1537 1536 1535 1534 1532 1531 1529 1527 1525 1523 1521 1519 1517 1515 1514 1512 1511 1510 1509 1509 1509 1509 1510 1510 1510 1510 1511